West Palm Beach, FL

4:25 PM EDT on October 16, 2019 (GMT -0400)
Palm Beach International

Weather History for KPBI - May, 2019

Change the Weather History Date:

Wednesday, May 15, 2019

  Actual Average Record
Temperature  
Mean Temperature 79 °F 78 °F  
Max Temperature 85 °F 86 °F 94 °F (1995)
Min Temperature 73 °F 71 °F 57 °F (1960)
Degree Days  
Heating Degree Days 0 0  
Month to date heating degree days 0 0  
Since 1 July heating degree days 144 233  
Cooling Degree Days 14 13  
Month to date cooling degree days 217 181  
Year to date cooling degree days 1142 876  
Growing Degree Days 28 (Base 50)    
Moisture  
Dew Point 69 °F    
Average Humidity 74    
Maximum Humidity 87    
Minimum Humidity 61    
Precipitation  
Precipitation 0.03 in 0.13 in 4.44 in (1934)
Month to date precipitation 5.29 1.51  
Year to date precipitation 21.01 15.71  
Snow  
Snow 0.00 in - - ()
Month to date snowfall 0.0  
Since 1 July snowfall 0.0  
Snow Depth 0.00 in    
Sea Level Pressure  
Sea Level Pressure 29.96 in    
Wind  
Wind Speed 8 mph (NNW)    
Max Wind Speed 16 mph    
Max Gust Speed 20 mph    
Visibility 10 miles    
Events Rain    
T = Trace of Precipitation, MM = Missing Value Source: NWS Daily Summary

Daily Weather History Graph

Daily Weather History Graph

Search for Another Location

Airport or City:

Astronomy

May. 15, 2019 Rise Set
Actual Time 6:33 AM EDT 8:00 PM EDT
Civil Twilight 6:08 AM EDT 8:25 PM EDT
Nautical Twilight 5:38 AM EDT 8:55 PM EDT
Astronomical Twilight 5:06 AM EDT 9:27 PM EDT
Moon 4:55 PM EDT (5/15) 4:28 AM EDT (5/15)
Length of Visible Light 14h 17m
Length of Day
13h 27m
Waxing Gibbous, 87% of the Moon is Illuminated
May 15
Waxing Gibbous
May 18
Full
May 26
Last Quarter
Jun 3
New
Jun 10
First Quarter

Hourly Weather History & Observations

Time (EDT) Temp. Heat Index Dew Point Humidity Pressure Visibility Wind Dir Wind Speed Gust Speed Precip Events Conditions
12:53 AM 78.1 °F - 71.1 °F 79% 29.96 in 10.0 mi West 3.5 mph - N/A   Mostly Cloudy
1:53 AM 75.9 °F - 70.0 °F 82% 29.93 in 10.0 mi West 5.8 mph - N/A   Mostly Cloudy
2:53 AM 75.0 °F - 70.0 °F 84% 29.93 in 10.0 mi WSW 3.5 mph - N/A   Mostly Cloudy
3:53 AM 73.9 °F - 69.1 °F 85% 29.91 in 10.0 mi SSW 5.8 mph - N/A   Scattered Clouds
4:53 AM 73.9 °F - 69.1 °F 85% 29.92 in 10.0 mi West 8.1 mph - N/A   Scattered Clouds
5:53 AM 73.0 °F - 68.0 °F 84% 29.93 in 10.0 mi WSW 4.6 mph - N/A   Scattered Clouds
6:53 AM 73.0 °F - 69.1 °F 87% 29.94 in 10.0 mi WNW 8.1 mph - N/A   Mostly Cloudy
7:53 AM 75.0 °F - 69.1 °F 82% 29.96 in 10.0 mi West 9.2 mph - N/A   Mostly Cloudy
8:53 AM 77.0 °F - 68.0 °F 74% 29.96 in 10.0 mi WNW 9.2 mph - N/A   Mostly Cloudy
9:53 AM 79.0 °F - 69.1 °F 72% 29.98 in 10.0 mi North 11.5 mph - N/A   Mostly Cloudy
10:53 AM 78.1 °F - 68.0 °F 71% 30.00 in 10.0 mi NW 5.8 mph - N/A   Overcast
11:53 AM 78.1 °F - 68.0 °F 71% 30.00 in 9.0 mi North 5.8 mph - 0.01 in Rain Light Rain
12:38 PM 78.1 °F - 69.1 °F 74% 30.00 in 9.0 mi NNW 4.6 mph - 0.00 in Rain Light Rain
12:53 PM 80.1 °F 82.9 °F 69.1 °F 69% 29.99 in 9.0 mi North 4.6 mph - 0.00 in Rain Light Rain
1:53 PM 82.0 °F 85.9 °F 70.0 °F 67% 29.98 in 10.0 mi Variable 3.5 mph - 0.00 in   Mostly Cloudy
2:53 PM 84.0 °F 87.8 °F 69.1 °F 61% 29.96 in 10.0 mi Variable 3.5 mph - N/A   Mostly Cloudy
3:53 PM 82.9 °F 87.5 °F 71.1 °F 67% 29.95 in 10.0 mi East 11.5 mph - N/A   Mostly Cloudy
4:53 PM 82.0 °F 85.5 °F 69.1 °F 65% 29.93 in 10.0 mi ENE 10.4 mph - N/A   Mostly Cloudy
5:53 PM 78.1 °F - 72.0 °F 81% 29.93 in 10.0 mi East 11.5 mph - 0.02 in   Mostly Cloudy
6:53 PM 79.0 °F - 70.0 °F 74% 29.95 in 10.0 mi ENE 8.1 mph - 0.00 in   Overcast
7:53 PM 78.1 °F - 69.1 °F 74% 29.96 in 10.0 mi ENE 10.4 mph - N/A   Mostly Cloudy
8:53 PM 79.0 °F - 68.0 °F 69% 29.98 in 10.0 mi ENE 12.7 mph - N/A   Mostly Cloudy
9:53 PM 78.1 °F - 68.0 °F 71% 29.99 in 10.0 mi ENE 9.2 mph - N/A   Mostly Cloudy
10:53 PM 78.1 °F - 68.0 °F 71% 30.00 in 10.0 mi ENE 11.5 mph - N/A   Scattered Clouds
11:53 PM 78.1 °F - 66.9 °F 68% 29.99 in 10.0 mi East 10.4 mph - N/A   Mostly Cloudy